Aswan, Egypt

10:54 AM EET on April 26, 2017 (GMT +0200)
Aswan

Weather History for HESN - December, 2011

Change the Weather History Date:

Friday, December 16, 2011

  Actual Average Record
Temperature  
Mean Temperature 63 °F -  
Max Temperature 73 °F 71 °F 78 °F (2008)
Min Temperature 53 °F 50 °F 42 °F (2003)
Degree Days  
Heating Degree Days 2    
Growing Degree Days 13 (Base 50)    
Moisture  
Dew Point 41 °F    
Average Humidity 43    
Maximum Humidity 67    
Minimum Humidity 23    
Precipitation  
Precipitation 0.00 in 0.00 in - ()
Sea Level Pressure  
Sea Level Pressure 30.07 in    
Wind  
Wind Speed 6 mph ()    
Max Wind Speed 10 mph    
Max Gust Speed -    
Visibility 6.0 miles    
Events      
Averages and records for this station are not official NWS values.
T = Trace of Precipitation, MM = Missing Value Source: Averaged Metar Reports

Daily Weather History Graph

Daily Weather History Graph

Search for Another Location

Airport or City:

Trip Planner

Search our weather history database for the weather conditions in past years. The results will help you decide how hot, cold, wet, or windy it might be!

Date:

Astronomy

Dec. 16, 2011 Rise Set
Actual Time 6:24 AM EET 5:04 PM EET
Civil Twilight 5:59 AM EET 5:29 PM EET
Nautical Twilight 5:31 AM EET 5:57 PM EET
Astronomical Twilight 5:03 AM EET 6:25 PM EET
Moon 10:40 PM EET (12/16) 10:30 AM EET (12/16)
Length of Visible Light 11h 29m
Length of Day
10h 39m
Waning Gibbous, 68% of the Moon is Illuminated
Dec 16
Waning Gibbous
Dec 18
Last Quarter
Dec 24
New
Jan 1
First Quarter
Jan 9
Full

Hourly Weather History & Observations

Time (EET) Temp. Dew Point Humidity Pressure Visibility Wind Dir Wind Speed Gust Speed Precip Events Conditions
12:00 AM 55.4 °F 42.8 °F 63% 30.09 in - North 6.9 mph - N/A   Clear
1:00 AM 53.6 °F 42.8 °F 67% 30.09 in - North 6.9 mph - N/A   Clear
8:00 AM 53.6 °F 42.8 °F 67% 30.12 in - North 8.1 mph - N/A   Clear
9:00 AM 57.2 °F 42.8 °F 59% 30.15 in - North 9.2 mph - N/A   Clear
10:00 AM 60.8 °F 42.8 °F 52% 30.12 in - North 10.4 mph - N/A   Clear
11:00 AM 64.4 °F 44.6 °F 49% 30.12 in - North 8.1 mph - N/A   Clear
12:00 PM 68.0 °F 44.6 °F 43% 30.09 in - North 4.6 mph - N/A   Clear
2:00 PM 72 °F 42 °F 23% 30.03 in 6 mi North 6.9 mph - -   Clear
2:00 PM 71.6 °F 42.8 °F 35% 30.04 in - North 6.9 mph - N/A   Clear
3:00 PM 73.4 °F 41.0 °F 31% 30.04 in - North 8.1 mph - N/A   Clear
4:00 PM 71.6 °F 41.0 °F 33% 30.04 in - North 9.2 mph - N/A   Clear
5:00 PM 69.8 °F 41.0 °F 35% 30.04 in - NNW 8.1 mph - N/A   Clear
6:00 PM 68.0 °F 41.0 °F 37% 30.04 in - NNW 4.6 mph - N/A   Clear
7:00 PM 66.2 °F 39.2 °F 37% 30.06 in - NNW 4.6 mph - N/A   Clear
8:00 PM 63 °F 38 °F 28% 30.07 in 6 mi NW 4.6 mph - -  
8:00 PM 62.6 °F 39.2 °F 42% 30.06 in - NW 4.6 mph - N/A   Clear
9:00 PM 62.6 °F 37.4 °F 39% 30.06 in - North 5.8 mph - N/A   Clear
10:00 PM 60.8 °F 37.4 °F 42% 30.06 in - North 5.8 mph - N/A   Clear
11:00 PM 60.8 °F 37.4 °F 42% 30.06 in - North 8.1 mph - N/A   Clear